Tracking 30918 objects as of 2-Jul-2025
HD Live streaming from Space Station
objects crossing your sky now

STARLINK-3415

Track STARLINK-3415 now!
10-day predictions
STARLINK-3415 is classified as:


NORAD ID: 51472
Int'l Code: 2022-010S
Perigee: 545.8 km
Apogee: 547.8 km
Inclination: 53.2 °
Period: 95.4 minutes
Semi major axis: 6917 km
RCS: Unknown
Launch date: February 3, 2022
Source: United States (US)
Launch site: AIR FORCE EASTERN TEST RANGE (AFETR)
Your satellite tracking list
ICON
Track 1 satellite(s)




NASA's NSSDC Master Catalog

Two Line Element Set (TLE):
1 51472U 22010S   25182.75407886  .00001767  00000-0  12903-3 0  9996
2 51472  53.2187 325.5460 0001431  86.2700 273.8456 15.08855012188944
Source of the keplerian elements: AFSPC